7 * 24
多渠道服务支持
BEIDOU-2 IGSO-5 是中国北斗二号卫星导航系统中的一颗倾斜地球同步轨道卫星(IGSO),于2012年发射。该卫星运行在高度约35,900公里的椭圆轨道上,倾角约为55度,主要用于增强北斗系统在亚太地区的定位、导航和授时服务。IGSO-5 与其他北斗卫星协同工作,提升系统覆盖范围和定位精度,支持交通运输、气象监测、应急救援等多个领域应用,是中国建设自主卫星导航体系的重要组成部分。
中国
(CN)
| 数据来源 | 国际轨道数据 |
| 星历时间: | 2026-09-11T03:05:17+0800 2天前 查看轨道信息 |
| 半长轴: | 42162.682km |
| 偏心率: | 0.0116652 |
| 轨道倾角: | 47.527° |
| 近地点辐角 | 224.151° |
| 升交点赤经 | 270.473° |
| 平近点角 | 237.270° |
| 近地点: | 35292.708km |
| 远地点: | 36276.382km |
| 周期: | 1435.992分钟 |
| 每日圈数: | 1.002791 |